Regional Weather Roundup
Issued by NWS Huntsville, AL

Home | Current Version | Previous Version | Text Only | Print | Product List | Glossary On
Versions: 1 2 3 4 5 6 7 8 9 10 11 12 13 14 15 16 17 18 19 20 21 22 23 24 25 26 27 28 29 30 31 32 33 34 35 36 37 38 39 40 41 42 43 44 45 46 47 48 49 50
000
ASUS44 KHUN 312310
RWRHUN

WEATHER ROUNDUP FOR THE TENNESSEE VALLEY
NATIONAL WEATHER SERVICE HUNTSVILLE AL
600 PM CDT MON AUG 31 2015

ALZ001>004-010000-
NORTHWEST ALABAMA

CITY           SKY/WX    TMP DP  RH WIND       PRES   REMARKS
COURTLAND HCN    N/A     81 N/A N/A N3          N/A
RUSSELLVILLE     N/A     81 N/A N/A MISG        N/A
SHOALS AIRPORT SUNNY     84  66  54 CALM      30.08S
SHOALS TVA RES   N/A     82 N/A N/A MISG        N/A
$$

ALZ005>007-016-010000-
NORTH CENTRAL ALABAMA

CITY           SKY/WX    TMP DP  RH WIND       PRES   REMARKS
CULLMAN AG STN   N/A     81 N/A N/A CALM        N/A
DECATUR AP     PTSUNNY   82  68  62 CALM      30.08S
HUNTSVILLE AP  MOSUNNY   85  67  54 W3        30.08R
HUN NWS/UAH      N/A     84  64  51 W5          N/A
MERIDIANVILLE  MOSUNNY   82  63  51 CALM      30.09R
REDSTONE ARSN  MOSUNNY   82  68  62 VRB1      30.07S
VINEMONT AP    MOCLDY    81  64  57 CALM      30.11S
$$

ALZ008>010-010000-
NORTHEAST ALABAMA

CITY           SKY/WX    TMP DP  RH WIND       PRES   REMARKS
ALBERTVILLE    SUNNY     79  72  78 CALM      30.09S
FORT PAYNE     CLOUDY    81  61  50 CALM      30.08S
SCOTTSBORO AP  SUNNY     82  66  57 CALM      30.08S
SCOTTSBORO HCN   N/A     81 N/A N/A MISG        N/A
VALLEY HEAD      N/A     79 N/A N/A MISG        N/A
$$

TNZ076-096-097-010000-
SOUTHEASTERN MIDDLE TENNESSEE

CITY           SKY/WX    TMP DP  RH WIND       PRES   REMARKS
TULLAHOMA      SUNNY     79  64  61 CALM      30.11S
WINCHESTER     CLOUDY    79  68  69 CALM      30.10S
$$

...SURROUNDING SITES...

CITY           SKY/WX    TMP DP  RH WIND       PRES   REMARKS
ATLANTA        PTSUNNY   80  68  66 S6        30.09S
ANNISTON       CLOUDY    81  67  62 CALM      30.08S
BIRMINGHAM     PTSUNNY   81  69  67 E6        30.09F
CHATTANOOGA    MOSUNNY   84  65  52 NW7       30.08R
DALTON         SUNNY     79  72  78 CALM      30.08R
GADSDEN        SUNNY     81  64  57 CALM      30.07S
GOLDEN TRNGL   MOSUNNY   86  64  48 NE9       30.04S
HALEYVILLE     FAIR      83  68  60 CALM      30.11S
JACKSON TN     MOSUNNY   84  69  60 CALM      30.06S
MEMPHIS        MOSUNNY   89  68  49 S8        30.03F HX  93
NASHVILLE      MOSUNNY   87  60  40 E5        30.08S
OXFORD MS      FAIR      84  66  54 E6        30.06S
ROME           SUNNY     84  65  52 N3        30.07R
SAVANNAH       SUNNY     82  32  16 S6        30.07S
TUPELO         SUNNY     85  65  51 NE8       30.05R
TUSCALOOSA     SUNNY     87  64  46 NE8       30.04F
$$

...GULF COAST WEATHER...

CITY           SKY/WX    TMP DP  RH WIND       PRES   REMARKS
GULFPORT       SUNNY     86  69  56 S7        30.01S HX  90
PASCAGOULA     SUNNY     86  71  60 S6        30.01S HX  91
MOBILE         MOSUNNY   89  69  51 S9        30.02R HX  93
GULF SHORES    CLEAR     86  71  60 S5        30.02R HX  91
PENSACOLA      MOSUNNY   86  71  60 SW12      30.00S HX  91
DESTIN         SUNNY     89  73  59 VRB6      30.00S HX  97
PANAMA CITY    MOSUNNY   88  75  64 W7        30.00S HX  97
APPALACHICOLA  SUNNY     86  75  69 SE6       30.01R HX  95
$$



USA.gov is the U.S. government's official web portal to all federal, state and local government web resources and services.